Temp
4 4 4 4 4 4 4 4 4 4 4 4 4 4 4 4 4 4 4 4 5 5 5 4 4 4 4 4 5 5 5 5 5 5 5 5 5 5 6 7 7 8 8 8 8 8 7 7 7 7 7 8 8 9 9 9 9 9 10 10 10 9 8 8 8 8 8 8 8
4 4 4 4 4 4 4 4 4 4 4 4 4 4 4 4 4 4 4 4 4 4 4 4 4 4 4 4 4 4 4 4 4 4 4 4 5 5 5 6 6 7 7 8 8 8 7 7 7 7 7 7 8 8 8 8 8 9 9 10 10 9 8 8 8 8 8 8 8
4 4 4 4 4 4 4 4 4 3 3 3 3 3 3 3 3 3 3 3 3 4 4 4 4 4 4 4 4 4 4 4 4 4 4 4 4 4 5 5 6 6 7 7 7 7 7 7 7 6 6 6 7 7 8 8 8 8 8 9 9 9 8 8 8 8 8 7 7
4 4 4 4 4 4 4 4 3 3 3 3 3 3 3 3 3 3 3 3 3 3 3 3 4 4 4 4 4 4 4 4 4 4 4 4 3 4 4 4 5 5 6 6 6 6 6 6 6 6 6 6 6 6 7 7 7 8 8 8 8 9 8 8 8 8 8 7 7
4 4 4 4 4 4 4 4 3 3 3 3 3 3 3 3 3 3 3 3 3 3 3 3 3 3 3 3 4 4 4 4 4 4 4 3 3 3 3 4 4 4 5 5 6 6 6 6 6 6 6 6 6 6 6 6 7 7 7 8 8 8 8 8 8 8 7 7 7
4 4 4 4 4 4 4 3 3 3 3 3 3 3 3 3 3 3 3 3 3 3 3 3 3 3 3 3 3 3 3 3 3 3 3 3 3 3 3 3 3 4 4 5 5 6 6 6 6 6 6 6 6 5 5 6 6 6 7 7 7 7 8 8 8 7 7 7 7
4 4 4 4 4 4 3 3 3 3 3 3 3 3 3 2 2 2 2 2 2 2 2 2 2 2 2 2 3 3 3 3 3 3 3 3 3 3 3 3 3 3 4 4 5 5 6 6 6 6 6 6 6 5 5 5 5 6 6 6 6 7 7 7 7 7 7 7 7
4 4 3 3 3 3 3 3 3 3 3 3 3 2 2 2 2 2 2 2 2 2 2 2 2 2 2 2 2 2 2 2 2 3 3 3 3 3 3 3 3 3 3 3 4 5 5 5 5 5 5 5 5 5 5 5 5 5 5 5 6 6 6 7 7 7 7 7 7
3 3 3 3 3 3 3 3 3 3 3 3 3 2 2 2 2 2 2 2 2 2 2 2 2 2 2 2 2 2 2 2 2 2 2 3 3 3 3 3 3 3 3 3 3 4 5 5 5 5 5 5 5 4 4 4 4 4 5 5 5 5 6 6 7 7 7 7 7
3 3 3 3 3 3 3 3 3 3 3 3 2 2 2 2 2 2 2 1 1 1 1 1 1 1 1 2 2 2 2 2 2 2 2 2 2 2 2 2 2 2 2 2 3 3 4 4 4 5 5 4 4 4 4 4 4 4 4 4 4 5 5 6 6 6 6 7 6
3 3 3 3 3 3 3 3 3 3 2 2 2 2 2 2 2 1 1 1 1 1 1 1 1 1 1 1 1 1 2 2 2 2 2 2 2 2 2 2 2 2 2 2 2 3 3 3 4 4 4 4 4 3 3 3 3 3 4 4 4 4 5 5 5 6 6 6 6
3 3 3 3 3 3 3 3 2 2 2 2 2 2 2 2 1 1 1 1 1 1 1 1 0 0 1 1 1 1 1 1 1 2 2 2 2 2 2 2 2 2 2 2 2 2 3 3 3 4 4 4 4 3 3 3 3 3 3 4 4 4 4 5 5 5 6 6 6
3 2 2 2 2 2 2 2 2 2 2 2 2 2 2 1 1 1 1 0 0 0 0 0 0 0 0 0 0 0 1 1 1 1 1 1 1 1 1 1 2 2 2 2 2 2 2 3 3 3 3 3 3 3 3 3 3 3 3 3 3 3 3 4 4 5 5 5 5
2 2 2 2 2 2 2 2 2 2 2 2 2 1 1 1 1 1 0 0 -0 -0 -0 -0 -0 -0 -0 -0 -0 0 0 1 1 1 1 1 1 1 1 1 1 1 1 2 2 2 2 2 2 3 3 3 3 3 2 2 2 2 3 3 3 3 3 3 4 4 5 5 5
2 2 2 2 2 2 2 2 2 2 1 1 1 1 1 1 0 0 -0 -0 -0 -1 -1 -1 -1 -0 -0 -0 -0 -0 0 0 0 1 1 1 1 1 1 1 1 1 1 1 1 1 2 2 2 2 2 3 2 2 2 2 2 2 2 3 2 2 2 3 3 4 4 4 5
2 2 2 2 2 2 2 2 1 1 1 1 1 1 0 0 0 -0 -0 -1 -1 -1 -1 -1 -1 -1 -1 -1 -0 -0 -0 -0 -0 0 0 1 1 1 1 0 0 1 1 1 1 1 1 1 1 2 2 2 2 2 2 2 2 2 2 2 2 2 2 2 3 3 3 4 4
2 2 2 2 2 1 1 1 1 1 1 0 0 0 -0 -0 -0 -0 -1 -1 -1 -1 -1 -1 -1 -1 -1 -1 -1 -1 -1 -1 -1 -1 -0 -0 -0 -0 -0 -0 -0 0 0 1 1 1 1 1 1 1 1 2 2 1 1 2 2 2 2 2 2 2 2 2 2 2 3 3 4
2 1 1 1 1 1 1 1 1 0 0 -0 -0 -1 -1 -1 -1 -1 -1 -1 -1 -2 -2 -2 -2 -2 -2 -2 -2 -2 -2 -2 -2 -1 -1 -1 -1 -1 -1 -1 -1 -0 0 0 1 1 1 1 1 1 1 1 1 1 1 1 2 2 1 1 1 1 1 2 2 2 3 3 3
1 1 1 1 1 1 0 0 -0 -0 -1 -1 -1 -1 -1 -1 -1 -1 -2 -2 -2 -2 -2 -2 -2 -2 -2 -2 -2 -2 -2 -2 -2 -2 -2 -2 -2 -2 -2 -2 -1 -1 -0 0 0 1 1 1 1 0 1 1 1 1 1 1 1 1 1 1 1 1 1 1 2 2 2 3 3
1 1 1 1 0 0 -0 -0 -1 -1 -1 -2 -2 -2 -2 -2 -2 -2 -2 -2 -2 -3 -3 -3 -3 -3 -3 -2 -2 -2 -2 -2 -2 -2 -2 -2 -2 -2 -2 -2 -2 -1 -1 -0 0 0 0 0 0 0 0 1 1 1 1 1 1 1 1 1 1 1 1 1 1 2 2 2 3
1 1 0 0 -0 -0 -1 -1 -1 -2 -2 -2 -2 -2 -2 -3 -3 -3 -3 -3 -3 -3 -3 -3 -3 -3 -3 -3 -3 -3 -3 -3 -2 -2 -2 -2 -3 -3 -3 -2 -2 -2 -2 -1 -0 -0 0 0 0 0 0 1 1 1 1 1 1 1 0 0 0 1 1 1 1 1 2 2 2
0 0 -0 -0 -1 -1 -1 -2 -2 -2 -3 -3 -3 -3 -3 -3 -3 -3 -3 -3 -3 -3 -3 -3 -3 -3 -3 -3 -3 -3 -3 -3 -3 -2 -2 -2 -2 -3 -3 -3 -3 -2 -2 -2 -1 -0 -0 -0 -0 0 0 0 1 1 1 1 1 0 0 0 0 0 0 1 1 1 1 1 1
-0 -0 -1 -1 -1 -2 -2 -2 -3 -3 -3 -3 -4 -4 -4 -4 -4 -4 -4 -4 -4 -4 -3 -3 -3 -3 -3 -3 -3 -3 -3 -3 -3 -3 -2 -2 -3 -3 -3 -3 -3 -3 -3 -2 -1 -1 -0 -0 -0 -0 0 0 0 1 1 1 0 0 -0 -0 -0 -0 0 0 0 0 1 1 1
-1 -1 -1 -2 -2 -2 -2 -3 -3 -4 -4 -4 -4 -4 -4 -4 -4 -4 -4 -4 -4 -4 -4 -4 -3 -3 -3 -3 -3 -3 -3 -3 -3 -3 -3 -3 -3 -3 -3 -3 -3 -3 -3 -2 -2 -1 -1 -0 -0 0 0 0 0 0 0 0 0 -0 -0 -0 -0 -0 -0 -0 -0 0 0 0 0
-1 -1 -2 -2 -2 -3 -3 -3 -4 -4 -4 -4 -4 -4 -4 -4 -4 -4 -4 -4 -4 -4 -4 -4 -4 -4 -4 -4 -4 -4 -3 -3 -3 -3 -3 -3 -3 -3 -3 -3 -3 -3 -2 -2 -2 -1 -1 -0 -0 0 0 0 0 0 0 0 -0 -0 -0 -0 -0 -0 -0 -0 -0 -0 -0 -0 -0
-2 -2 -2 -3 -3 -3 -4 -4 -4 -4 -4 -4 -4 -4 -4 -4 -4 -4 -4 -4 -4 -4 -4 -4 -4 -4 -4 -4 -4 -4 -4 -3 -3 -3 -4 -4 -4 -4 -3 -3 -3 -3 -2 -2 -1 -1 -1 -0 -0 0 0 0 0 0 0 -0 -0 -0 -1 -1 -1 -1 -1 -1 -1 -1 -1 -1 -1
-2 -2 -3 -3 -3 -4 -4 -4 -4 -5 -5 -5 -5 -5 -5 -5 -5 -5 -5 -4 -4 -4 -4 -4 -4 -4 -4 -4 -4 -4 -4 -4 -3 -4 -4 -4 -4 -4 -4 -3 -3 -3 -2 -2 -1 -1 -1 -0 -0 0 0 0 0 0 -0 -0 -1 -1 -1 -1 -1 -1 -1 -1 -1 -1 -1 -1 -1
-2 -3 -3 -3 -4 -4 -4 -4 -5 -5 -5 -5 -5 -5 -5 -5 -5 -5 -5 -5 -5 -4 -4 -4 -4 -4 -4 -4 -4 -4 -4 -4 -4 -4 -4 -4 -4 -4 -3 -3 -3 -2 -2 -2 -1 -1 -1 -0 0 0 0 0 0 -0 -0 -1 -1 -1 -1 -1 -1 -1 -1 -1 -1 -1 -2 -2 -2
-3 -3 -3 -4 -4 -4 -4 -5 -5 -5 -5 -5 -5 -5 -5 -5 -5 -5 -5 -5 -5 -5 -5 -5 -5 -5 -5 -5 -4 -4 -4 -4 -4 -4 -4 -4 -4 -3 -3 -3 -2 -2 -2 -2 -2 -1 -0 -0 0 0 0 0 0 -0 -1 -1 -1 -1 -1 -1 -2 -2 -2 -2 -2 -2 -2 -2 -2
-3 -3 -4 -4 -4 -5 -5 -5 -5 -5 -5 -5 -5 -5 -5 -5 -5 -5 -5 -5 -5 -5 -5 -5 -5 -5 -5 -5 -5 -4 -4 -4 -4 -4 -4 -4 -3 -3 -3 -3 -2 -2 -2 -2 -1 -1 -0 0 0 0 0 -0 -0 -0 -1 -1 -1 -1 -2 -2 -2 -2 -2 -2 -2 -2 -2 -2 -2
-3 -4 -4 -4 -5 -5 -5 -5 -5 -6 -5 -5 -5 -5 -5 -5 -5 -5 -5 -5 -5 -5 -5 -5 -5 -5 -5 -5 -5 -4 -4 -4 -4 -3 -3 -3 -3 -3 -3 -3 -3 -2 -2 -2 -1 -1 -0 0 0 0 -0 -0 -1 -1 -1 -1 -2 -2 -2 -2 -2 -2 -2 -2 -2 -2 -2 -2 -2
-4 -4 -5 -5 -5 -5 -6 -6 -6 -6 -6 -6 -6 -6 -5 -5 -5 -5 -5 -5 -5 -5 -5 -5 -5 -5 -5 -5 -5 -4 -4 -4 -4 -3 -3 -3 -3 -2 -2 -2 -2 -2 -1 -1 -1 -0 0 0 -0 -0 -0 -1 -1 -1 -1 -2 -2 -2 -2 -2 -2 -2 -2 -2 -2 -2 -2 -2 -2
-5 -5 -5 -5 -6 -6 -6 -6 -6 -6 -6 -6 -6 -6 -6 -6 -6 -6 -5 -5 -5 -5 -5 -5 -5 -5 -5 -5 -4 -4 -4 -4 -3 -3 -3 -3 -2 -2 -2 -2 -2 -1 -1 -1 -0 -0 -0 -0 -0 -0 -1 -1 -1 -2 -2 -2 -2 -2 -3 -3 -3 -2 -2 -2 -2 -2 -2 -2 -2
-5 -5 -6 -6 -6 -6 -6 -6 -6 -6 -6 -6 -6 -6 -6 -6 -6 -6 -6 -6 -5 -5 -5 -5 -5 -5 -5 -5 -4 -4 -4 -3 -3 -3 -3 -2 -2 -1 -1 -1 -1 -1 -1 -0 -0 -0 -0 -0 -1 -1 -1 -2 -2 -2 -2 -2 -3 -3 -3 -3 -3 -3 -3 -2 -2 -2 -2 -2 -2
-6 -6 -6 -6 -7 -7 -7 -7 -7 -7 -7 -7 -7 -6 -6 -6 -6 -6 -6 -6 -6 -5 -5 -5 -5 -5 -5 -5 -4 -4 -4 -3 -3 -3 -2 -2 -1 -1 -1 -1 -1 -1 -1 -1 -1 -0 -0 -1 -1 -1 -2 -2 -2 -2 -3 -3 -3 -3 -3 -3 -3 -3 -3 -3 -2 -2 -2 -2 -2
-6 -7 -7 -7 -7 -7 -7 -7 -7 -7 -7 -7 -7 -7 -7 -6 -6 -6 -6 -6 -6 -6 -5 -5 -5 -5 -5 -4 -4 -4 -4 -3 -3 -2 -2 -1 -1 -1 -1 -1 -1 -1 -1 -1 -1 -1 -1 -1 -1 -2 -2 -2 -2 -3 -3 -3 -3 -3 -3 -3 -4 -3 -3 -3 -3 -3 -2 -2 -2
-7 -7 -7 -7 -7 -7 -7 -7 -7 -7 -7 -7 -7 -7 -7 -7 -6 -6 -6 -6 -6 -6 -5 -5 -5 -5 -5 -4 -4 -4 -3 -3 -3 -2 -2 -1 -1 -1 -1 -1 -1 -1 -1 -1 -1 -1 -1 -1 -2 -2 -2 -2 -3 -3 -3 -3 -3 -3 -4 -4 -4 -4 -4 -3 -3 -3 -2 -2 -2
-7 -7 -7 -8 -8 -8 -8 -8 -8 -8 -7 -7 -7 -7 -7 -7 -7 -6 -6 -6 -6 -6 -5 -5 -5 -5 -4 -4 -4 -3 -3 -3 -3 -2 -2 -1 -1 -1 -1 -1 -1 -1 -1 -1 -1 -1 -1 -2 -2 -2 -2 -2 -3 -3 -3 -3 -4 -4 -4 -4 -4 -4 -4 -3 -3 -3 -2 -2 -2
-8 -8 -8 -8 -8 -8 -8 -8 -8 -8 -8 -7 -7 -7 -7 -7 -7 -6 -6 -6 -6 -6 -5 -5 -5 -5 -4 -4 -4 -4 -3 -3 -2 -2 -1 -1 -1 -1 -1 -1 -1 -1 -1 -1 -1 -1 -2 -2 -2 -2 -2 -2 -3 -3 -3 -3 -4 -4 -4 -4 -4 -4 -4 -3 -3 -3 -2 -2 -2
-8 -8 -8 -8 -8 -8 -8 -8 -8 -8 -8 -8 -7 -7 -7 -7 -7 -6 -6 -6 -6 -6 -5 -5 -5 -5 -4 -4 -4 -4 -3 -3 -2 -2 -1 -1 -1 -1 -1 -1 -1 -2 -2 -2 -2 -2 -2 -2 -2 -2 -2 -2 -3 -3 -3 -4 -4 -4 -4 -4 -4 -4 -4 -4 -3 -3 -3 -2 -2
-8 -8 -8 -9 -8 -8 -8 -8 -8 -8 -8 -8 -8 -7 -7 -7 -7 -6 -6 -6 -6 -6 -5 -5 -5 -5 -4 -4 -4 -4 -3 -3 -2 -2 -1 -1 -1 -1 -1 -1 -2 -2 -2 -2 -2 -2 -2 -2 -3 -3 -3 -3 -3 -3 -3 -4 -4 -4 -4 -4 -4 -4 -5 -4 -4 -3 -3 -3 -3
Height
1470 1469 1468 1467 1467 1466 1464 1463 1462 1462 1461 1460 1459 1457 1457 1456 1454 1453 1452 1452 1450 1449 1448 1447 1446 1445 1445 1444 1443 1442 1441 1440 1439 1438 1437 1436 1435 1434 1434 1434 1434 1433 1432 1432 1431 1431 1431 1430 1430 1429 1429 1430 1430 1430 1430 1431 1432 1431 1429 1427 1427 1428 1430 1432 1432 1432 1433 1435 1436
1469 1468 1467 1466 1465 1464 1463 1462 1461 1460 1459 1458 1457 1456 1455 1454 1452 1451 1450 1449 1448 1447 1446 1445 1444 1443 1442 1442 1441 1441 1440 1438 1437 1436 1434 1433 1432 1432 1432 1431 1431 1431 1430 1429 1428 1428 1427 1427 1427 1426 1425 1425 1426 1427 1427 1428 1429 1429 1428 1426 1424 1424 1426 1428 1428 1428 1429 1431 1432
1467 1467 1466 1465 1464 1462 1462 1460 1459 1458 1457 1456 1455 1454 1453 1452 1451 1450 1448 1447 1447 1446 1445 1443 1442 1442 1441 1440 1439 1439 1438 1437 1435 1434 1432 1430 1429 1429 1428 1428 1428 1428 1427 1426 1425 1424 1423 1423 1423 1422 1421 1421 1422 1422 1423 1424 1426 1426 1425 1424 1422 1422 1422 1424 1425 1425 1426 1427 1428
1466 1465 1464 1463 1462 1461 1460 1459 1457 1457 1456 1454 1453 1452 1451 1450 1449 1448 1447 1446 1445 1444 1443 1442 1441 1440 1439 1438 1437 1436 1436 1435 1433 1432 1430 1428 1427 1425 1425 1424 1425 1425 1424 1423 1422 1421 1420 1419 1419 1419 1418 1417 1417 1418 1419 1420 1421 1422 1421 1421 1420 1419 1419 1420 1422 1422 1422 1423 1424
1464 1463 1462 1461 1460 1459 1458 1457 1456 1455 1454 1452 1452 1450 1449 1448 1447 1446 1445 1443 1442 1442 1441 1440 1438 1437 1437 1436 1435 1434 1433 1432 1432 1430 1429 1427 1425 1423 1421 1421 1421 1421 1421 1421 1419 1418 1417 1416 1416 1415 1414 1414 1414 1414 1414 1416 1417 1417 1417 1417 1417 1416 1416 1417 1418 1419 1420 1420 1420
1462 1462 1461 1460 1458 1457 1457 1456 1454 1453 1452 1451 1450 1448 1447 1446 1445 1444 1443 1442 1440 1439 1438 1437 1436 1435 1434 1433 1432 1431 1431 1430 1429 1428 1427 1425 1423 1421 1419 1418 1417 1417 1417 1417 1417 1416 1414 1413 1412 1411 1411 1411 1411 1411 1411 1412 1413 1413 1413 1414 1413 1413 1413 1414 1415 1417 1417 1417 1417
1461 1460 1459 1458 1457 1456 1455 1454 1453 1452 1450 1449 1448 1446 1445 1444 1443 1442 1441 1439 1438 1437 1436 1435 1433 1432 1431 1430 1429 1428 1428 1427 1427 1426 1425 1423 1421 1420 1418 1416 1414 1413 1413 1413 1413 1413 1412 1411 1409 1408 1407 1408 1408 1407 1408 1409 1409 1409 1410 1410 1410 1411 1411 1411 1412 1413 1413 1413 1413
1459 1458 1457 1456 1455 1454 1453 1452 1451 1450 1449 1447 1446 1444 1443 1442 1441 1440 1438 1437 1436 1435 1434 1432 1431 1430 1429 1428 1427 1426 1425 1424 1423 1422 1422 1421 1419 1417 1416 1414 1412 1411 1410 1410 1410 1410 1409 1408 1407 1406 1405 1405 1405 1405 1405 1406 1407 1407 1407 1407 1407 1408 1408 1408 1408 1409 1409 1409 1409
1457 1456 1455 1454 1453 1452 1451 1450 1449 1448 1447 1445 1444 1443 1442 1440 1439 1437 1437 1435 1434 1433 1432 1430 1429 1428 1427 1426 1425 1423 1422 1422 1421 1419 1419 1418 1417 1415 1413 1412 1410 1409 1407 1407 1407 1407 1407 1406 1405 1403 1402 1402 1402 1402 1403 1403 1404 1405 1405 1405 1405 1405 1405 1405 1405 1405 1405 1405 1406
1456 1454 1453 1452 1451 1450 1449 1448 1447 1446 1444 1443 1442 1441 1440 1438 1437 1436 1434 1433 1432 1430 1429 1428 1427 1426 1424 1423 1422 1421 1420 1419 1418 1417 1416 1415 1414 1413 1411 1409 1408 1406 1405 1404 1404 1404 1404 1403 1402 1401 1400 1400 1400 1400 1401 1401 1402 1402 1403 1402 1402 1402 1403 1403 1402 1402 1402 1402 1402
1454 1452 1451 1450 1449 1447 1447 1445 1444 1443 1442 1441 1439 1438 1437 1436 1435 1433 1432 1431 1429 1427 1426 1425 1424 1423 1422 1420 1419 1418 1417 1417 1416 1415 1413 1412 1411 1410 1408 1407 1405 1404 1402 1401 1401 1401 1401 1400 1399 1398 1398 1397 1397 1398 1398 1399 1400 1401 1401 1400 1400 1400 1400 1401 1400 1400 1400 1400 1400
1452 1450 1449 1448 1447 1446 1444 1443 1442 1441 1440 1438 1437 1436 1435 1434 1432 1431 1429 1427 1426 1424 1423 1422 1421 1420 1418 1417 1416 1415 1414 1413 1412 1412 1410 1409 1408 1407 1405 1404 1402 1401 1400 1398 1398 1398 1397 1397 1397 1396 1395 1395 1395 1395 1396 1397 1398 1398 1398 1397 1397 1397 1397 1398 1398 1398 1398 1398 1398
1449 1448 1447 1446 1444 1443 1442 1441 1439 1438 1437 1436 1434 1433 1432 1431 1429 1428 1426 1424 1422 1421 1419 1418 1417 1416 1415 1414 1412 1412 1411 1409 1408 1407 1407 1405 1404 1403 1402 1401 1399 1398 1397 1396 1395 1394 1394 1394 1394 1394 1393 1392 1392 1393 1394 1395 1396 1396 1395 1394 1394 1395 1395 1395 1396 1396 1396 1396 1396
1447 1446 1444 1443 1442 1441 1440 1438 1437 1436 1434 1433 1432 1431 1429 1428 1426 1425 1423 1421 1419 1417 1416 1415 1413 1412 1411 1410 1409 1408 1407 1406 1404 1403 1402 1401 1400 1399 1398 1397 1396 1395 1394 1392 1392 1391 1391 1391 1391 1391 1390 1390 1390 1390 1391 1392 1393 1393 1392 1392 1392 1392 1392 1393 1393 1393 1394 1394 1395
1444 1443 1442 1441 1440 1438 1437 1436 1434 1433 1432 1430 1429 1428 1427 1425 1423 1422 1420 1418 1416 1414 1413 1412 1410 1409 1407 1407 1405 1404 1402 1401 1400 1399 1398 1397 1396 1396 1394 1393 1392 1392 1391 1389 1388 1387 1387 1387 1388 1388 1388 1387 1387 1387 1388 1389 1389 1390 1390 1389 1389 1389 1390 1390 1391 1391 1391 1392 1393
1442 1441 1439 1438 1437 1436 1435 1433 1432 1430 1429 1427 1426 1425 1423 1422 1420 1418 1417 1415 1413 1411 1410 1408 1407 1405 1404 1402 1401 1400 1398 1397 1396 1395 1394 1393 1392 1392 1391 1390 1389 1388 1387 1386 1384 1383 1383 1384 1384 1385 1385 1384 1384 1384 1385 1386 1386 1387 1387 1387 1387 1387 1387 1388 1388 1388 1388 1389 1390
1439 1438 1437 1436 1434 1433 1432 1431 1429 1427 1426 1424 1423 1422 1420 1418 1417 1415 1414 1412 1410 1408 1406 1405 1403 1402 1401 1399 1397 1397 1395 1393 1392 1391 1390 1389 1388 1388 1387 1386 1385 1384 1384 1382 1381 1380 1379 1379 1381 1382 1382 1381 1381 1382 1382 1383 1383 1383 1384 1384 1384 1384 1384 1385 1385 1386 1386 1387 1387
1437 1435 1434 1433 1432 1430 1429 1428 1426 1425 1423 1422 1420 1418 1417 1415 1414 1412 1410 1409 1407 1405 1403 1401 1400 1399 1397 1396 1394 1393 1392 1391 1389 1388 1387 1385 1384 1384 1383 1382 1381 1380 1380 1379 1377 1376 1376 1376 1377 1378 1378 1378 1378 1378 1379 1380 1380 1381 1381 1381 1381 1381 1382 1382 1382 1383 1383 1384 1385
1434 1433 1432 1430 1429 1428 1427 1425 1423 1422 1420 1418 1417 1415 1413 1412 1410 1409 1407 1405 1403 1402 1400 1398 1396 1395 1393 1392 1391 1390 1389 1387 1386 1384 1383 1382 1381 1380 1379 1378 1377 1376 1376 1376 1374 1373 1372 1373 1374 1375 1375 1375 1375 1376 1376 1377 1377 1378 1378 1379 1379 1379 1379 1379 1380 1380 1381 1382 1383
1431 1430 1429 1428 1427 1425 1424 1422 1420 1419 1417 1415 1413 1412 1410 1408 1407 1405 1403 1401 1400 1398 1397 1395 1393 1391 1390 1388 1387 1386 1385 1384 1382 1381 1379 1378 1377 1376 1375 1374 1373 1372 1371 1371 1371 1370 1369 1369 1371 1371 1372 1372 1372 1373 1373 1374 1375 1375 1376 1376 1376 1377 1377 1377 1377 1377 1378 1379 1380
1429 1427 1427 1425 1424 1422 1421 1419 1417 1416 1414 1412 1410 1407 1406 1404 1402 1401 1399 1397 1396 1395 1393 1392 1390 1388 1387 1385 1384 1382 1381 1380 1378 1377 1375 1373 1372 1371 1370 1369 1368 1367 1367 1367 1367 1366 1365 1366 1367 1368 1368 1369 1369 1370 1370 1371 1372 1372 1373 1373 1374 1374 1374 1374 1375 1375 1376 1377 1378
1426 1425 1424 1422 1421 1419 1417 1416 1414 1412 1410 1408 1406 1404 1402 1400 1398 1397 1395 1394 1392 1391 1390 1388 1387 1385 1383 1382 1381 1378 1377 1375 1373 1372 1370 1368 1367 1366 1365 1364 1364 1363 1362 1362 1362 1362 1362 1362 1363 1364 1365 1366 1366 1367 1367 1368 1368 1369 1370 1371 1372 1372 1372 1372 1373 1373 1374 1375 1376
1424 1422 1421 1419 1417 1416 1414 1412 1411 1409 1407 1404 1402 1400 1398 1396 1394 1393 1391 1390 1389 1387 1386 1384 1383 1381 1380 1378 1377 1375 1372 1370 1368 1367 1365 1363 1362 1361 1360 1359 1359 1358 1357 1357 1358 1358 1358 1358 1359 1360 1361 1362 1362 1363 1364 1365 1366 1366 1367 1368 1369 1370 1370 1371 1371 1371 1372 1372 1374
1421 1420 1418 1416 1414 1413 1411 1409 1407 1405 1403 1401 1399 1397 1395 1393 1391 1390 1388 1386 1385 1384 1382 1381 1379 1377 1376 1374 1372 1371 1368 1366 1364 1362 1360 1358 1357 1356 1355 1354 1353 1353 1352 1352 1353 1354 1355 1355 1355 1356 1357 1358 1359 1360 1361 1362 1362 1363 1364 1365 1367 1368 1369 1369 1368 1369 1370 1370 1372
1418 1417 1415 1413 1412 1410 1408 1406 1404 1402 1400 1398 1396 1394 1392 1390 1388 1387 1385 1383 1381 1380 1378 1377 1375 1373 1372 1370 1367 1366 1364 1362 1359 1357 1355 1353 1352 1351 1350 1350 1349 1348 1347 1347 1348 1349 1350 1351 1351 1352 1353 1354 1356 1356 1357 1358 1359 1360 1362 1363 1365 1366 1367 1367 1367 1367 1368 1368 1369
1415 1413 1412 1410 1408 1406 1405 1403 1401 1399 1397 1395 1393 1391 1389 1387 1385 1383 1381 1379 1377 1376 1375 1373 1371 1369 1367 1365 1362 1360 1358 1356 1354 1352 1350 1348 1347 1346 1345 1345 1344 1343 1342 1343 1344 1345 1347 1347 1347 1348 1350 1351 1352 1353 1354 1355 1356 1358 1360 1362 1362 1363 1363 1364 1365 1366 1366 1367 1368
1412 1410 1408 1407 1405 1403 1401 1399 1397 1396 1393 1392 1390 1388 1386 1383 1382 1380 1378 1376 1374 1372 1371 1369 1367 1365 1362 1360 1357 1355 1353 1351 1349 1347 1345 1344 1342 1341 1340 1340 1339 1339 1338 1339 1340 1342 1343 1343 1344 1345 1347 1348 1348 1349 1351 1352 1354 1356 1358 1359 1360 1361 1362 1362 1363 1363 1364 1365 1367
1409 1407 1405 1403 1402 1400 1398 1396 1394 1392 1390 1388 1387 1384 1382 1380 1378 1377 1374 1372 1370 1368 1367 1365 1362 1360 1358 1355 1352 1350 1348 1346 1344 1342 1341 1339 1338 1337 1335 1335 1335 1334 1334 1335 1337 1338 1339 1340 1341 1342 1343 1344 1345 1346 1348 1350 1352 1353 1355 1356 1358 1359 1361 1361 1361 1362 1362 1363 1365
1406 1404 1402 1400 1398 1396 1394 1392 1391 1389 1387 1385 1383 1381 1379 1377 1375 1373 1371 1369 1367 1365 1362 1360 1358 1356 1353 1350 1347 1345 1343 1342 1340 1338 1336 1334 1333 1332 1331 1331 1330 1330 1331 1332 1333 1335 1336 1337 1338 1339 1339 1340 1342 1343 1345 1347 1349 1351 1352 1354 1356 1357 1359 1360 1360 1360 1361 1362 1363
1402 1401 1399 1397 1395 1393 1391 1389 1387 1386 1384 1382 1380 1378 1376 1374 1372 1370 1367 1365 1363 1361 1359 1357 1354 1351 1348 1346 1343 1341 1338 1336 1334 1333 1332 1330 1328 1327 1327 1327 1327 1327 1327 1329 1330 1331 1332 1334 1334 1335 1336 1337 1339 1341 1342 1344 1346 1348 1350 1352 1354 1355 1357 1358 1358 1359 1359 1361 1362
1399 1397 1396 1393 1392 1390 1387 1386 1384 1382 1381 1379 1377 1375 1372 1370 1368 1366 1364 1362 1359 1357 1354 1352 1350 1347 1344 1341 1339 1337 1334 1332 1330 1328 1327 1325 1324 1322 1322 1322 1322 1323 1324 1325 1327 1328 1329 1330 1331 1332 1333 1335 1337 1338 1340 1342 1344 1346 1348 1350 1352 1353 1355 1356 1357 1357 1358 1359 1361
1396 1394 1392 1390 1388 1386 1384 1382 1381 1379 1377 1375 1373 1371 1369 1367 1364 1362 1360 1357 1355 1352 1350 1348 1345 1342 1339 1337 1335 1332 1330 1327 1326 1324 1322 1321 1320 1319 1318 1318 1318 1319 1320 1321 1323 1324 1326 1327 1328 1330 1331 1333 1334 1336 1338 1340 1342 1344 1346 1348 1350 1351 1352 1354 1355 1356 1357 1359 1360
1393 1391 1389 1387 1385 1383 1381 1379 1377 1376 1374 1372 1369 1367 1365 1363 1360 1358 1356 1353 1351 1349 1346 1343 1341 1338 1335 1332 1330 1328 1326 1323 1321 1320 1318 1317 1316 1315 1314 1313 1313 1314 1316 1317 1319 1321 1322 1324 1325 1327 1329 1331 1332 1334 1336 1338 1341 1343 1345 1347 1348 1350 1351 1352 1354 1355 1357 1358 1360
1390 1388 1386 1384 1382 1379 1377 1376 1374 1372 1370 1368 1365 1363 1361 1359 1357 1354 1352 1349 1347 1345 1342 1339 1337 1334 1331 1329 1327 1324 1321 1319 1317 1316 1314 1313 1312 1311 1310 1310 1310 1311 1312 1314 1316 1317 1319 1321 1322 1325 1327 1328 1330 1332 1334 1337 1339 1341 1343 1345 1347 1349 1350 1352 1353 1354 1356 1357 1359
1387 1385 1382 1380 1378 1376 1374 1372 1370 1368 1367 1364 1362 1359 1357 1355 1353 1350 1347 1345 1342 1340 1337 1335 1332 1330 1328 1325 1323 1321 1318 1316 1314 1312 1311 1310 1309 1308 1308 1308 1308 1307 1309 1311 1313 1314 1316 1318 1320 1322 1324 1326 1328 1330 1333 1335 1337 1340 1342 1343 1346 1348 1350 1351 1353 1354 1356 1357 1359
1384 1382 1379 1377 1375 1373 1371 1369 1367 1365 1363 1361 1358 1356 1353 1351 1349 1347 1344 1342 1339 1336 1333 1331 1329 1327 1324 1322 1319 1317 1315 1313 1311 1309 1308 1307 1306 1306 1307 1306 1305 1306 1307 1309 1311 1313 1314 1317 1319 1321 1322 1324 1327 1329 1332 1334 1336 1338 1340 1342 1345 1347 1349 1351 1353 1354 1356 1358 1360
1381 1379 1377 1374 1372 1370 1368 1366 1364 1362 1359 1357 1355 1352 1350 1347 1345 1342 1340 1338 1336 1333 1330 1327 1326 1323 1321 1318 1316 1314 1312 1310 1308 1306 1304 1303 1304 1305 1305 1304 1304 1305 1307 1308 1310 1312 1313 1315 1317 1319 1321 1324 1326 1329 1331 1333 1336 1338 1340 1342 1345 1347 1350 1352 1353 1355 1357 1359 1361
1378 1376 1374 1372 1370 1367 1365 1363 1361 1359 1356 1353 1351 1349 1347 1344 1342 1339 1337 1335 1333 1330 1327 1324 1322 1320 1318 1316 1313 1311 1308 1307 1305 1303 1302 1301 1302 1302 1302 1302 1303 1305 1307 1307 1309 1310 1312 1314 1316 1318 1321 1323 1326 1328 1331 1333 1335 1337 1340 1342 1345 1348 1350 1352 1354 1356 1358 1360 1362
1375 1373 1372 1369 1367 1365 1362 1360 1358 1356 1353 1351 1348 1345 1343 1341 1338 1336 1333 1332 1330 1327 1324 1322 1319 1317 1315 1313 1311 1308 1306 1303 1302 1301 1300 1300 1300 1299 1299 1300 1302 1304 1306 1307 1308 1310 1312 1313 1316 1318 1320 1322 1325 1327 1330 1332 1335 1337 1340 1342 1346 1348 1351 1352 1354 1356 1358 1361 1364
1372 1371 1369 1367 1364 1362 1359 1357 1355 1352 1350 1348 1345 1342 1340 1337 1335 1332 1330 1328 1327 1324 1322 1319 1317 1314 1312 1311 1309 1306 1304 1301 1300 1299 1298 1298 1297 1297 1297 1300 1302 1304 1305 1307 1308 1309 1311 1313 1315 1317 1320 1322 1324 1327 1329 1332 1334 1337 1340 1342 1345 1348 1351 1352 1354 1356 1359 1362 1365
1370 1368 1366 1364 1361 1359 1357 1354 1351 1349 1347 1345 1342 1339 1337 1334 1332 1329 1327 1326 1324 1322 1320 1317 1314 1312 1310 1309 1307 1304 1302 1300 1299 1298 1298 1297 1296 1296 1297 1300 1302 1304 1305 1307 1308 1309 1311 1313 1315 1317 1319 1321 1324 1326 1328 1331 1334 1337 1340 1343 1345 1347 1350 1352 1354 1357 1359 1362 1365
Wind_Speed
20 19 19 19 19 19 20 20 20 20 20 20 21 22 22 23 25 26 26 27 27 27 27 27 27 27 28 28 29 30 30 31 32 33 35 36 36 37 37 37 37 40 42 44 44 42 40 37 37 37 39 42 46 49 49 46 45 48 53 57 57 54 50 48 47 47 47 47 46
20 20 20 20 20 20 20 20 20 20 20 20 20 21 22 23 24 25 26 26 27 27 28 28 28 29 29 29 30 31 32 33 34 36 37 38 39 39 39 38 38 38 40 42 43 42 40 37 36 35 36 39 42 46 48 48 47 47 50 55 58 56 51 48 47 47 47 48 47
21 21 21 21 21 21 21 21 22 22 21 21 22 22 23 24 24 24 25 25 26 27 28 29 30 30 31 31 31 32 32 33 35 37 39 41 43 44 43 42 41 40 39 40 42 42 41 39 37 35 35 36 38 41 44 48 49 50 50 52 54 55 53 50 48 47 47 48 48
22 21 21 22 22 22 23 23 23 23 23 23 24 24 25 25 25 25 25 25 26 26 27 28 30 31 32 33 34 34 34 34 35 37 40 43 45 47 48 47 45 43 41 40 41 42 43 42 40 37 35 35 35 37 40 44 48 51 51 50 53 56 55 53 50 48 48 49 50
23 22 22 23 23 24 24 24 24 24 24 24 25 25 25 25 25 25 26 26 26 27 28 29 30 32 33 34 35 35 36 36 36 37 39 43 46 48 50 50 49 46 43 41 41 42 43 44 43 41 38 36 35 35 36 40 45 49 51 51 53 55 55 53 52 50 48 48 50
24 23 24 24 25 25 26 26 26 25 25 25 26 27 26 26 26 26 27 28 29 29 30 30 31 32 33 34 35 35 36 36 37 37 39 41 44 48 50 51 51 48 45 42 42 43 44 45 44 43 41 39 36 35 35 36 40 46 51 53 54 54 53 52 53 52 50 48 48
24 24 25 25 26 26 27 27 27 27 26 26 26 26 26 27 27 28 29 29 30 31 31 32 32 32 33 34 34 35 36 36 37 39 40 42 44 46 49 51 52 51 49 46 44 44 44 44 45 46 45 42 40 37 35 35 37 42 47 51 54 54 53 51 50 51 51 50 48
25 25 26 27 27 27 28 27 27 27 27 27 27 27 28 28 29 29 29 30 30 30 31 32 32 33 34 34 35 35 36 37 39 40 41 43 45 47 49 51 51 51 51 49 47 46 45 45 46 48 48 46 43 40 37 36 37 39 42 46 50 52 52 51 49 50 51 51 49
26 27 27 28 28 28 28 28 27 27 28 28 28 29 29 29 29 29 29 29 29 30 31 32 33 34 35 35 36 36 37 38 39 41 42 44 45 46 47 48 49 50 51 51 50 48 47 46 47 49 50 49 45 42 39 38 38 38 39 42 46 48 49 48 48 48 49 50 50
27 28 29 29 29 29 28 28 28 28 28 29 29 29 29 29 30 30 29 29 30 31 32 33 34 35 36 36 37 37 37 37 39 40 41 42 43 45 46 47 48 49 51 52 52 50 49 47 48 50 51 49 46 43 40 39 39 39 39 40 43 46 47 46 45 45 47 48 49
29 29 29 29 29 29 28 28 28 28 29 29 29 29 30 30 31 30 30 30 31 32 33 34 35 35 36 37 37 38 37 37 38 38 39 41 42 44 46 47 48 48 50 52 53 52 50 48 48 49 50 49 45 42 40 40 40 40 40 40 41 43 44 44 44 44 45 46 49
30 30 30 29 29 29 28 29 29 29 29 29 29 30 30 31 32 32 32 33 34 35 36 36 36 37 38 38 38 38 38 38 38 39 40 41 42 44 45 47 47 48 49 51 53 52 51 48 48 49 49 47 44 41 40 40 41 42 42 41 40 40 41 42 43 43 44 45 48
30 30 30 29 29 28 29 29 29 29 29 29 30 30 30 31 32 32 33 35 36 37 38 39 40 40 40 39 40 40 40 40 40 40 41 42 43 43 44 45 46 47 49 51 52 52 50 48 48 48 48 47 44 40 39 39 41 43 44 42 40 39 39 40 41 42 43 44 48
30 30 29 29 28 28 29 29 29 29 29 29 30 30 30 31 32 33 35 36 38 40 41 43 43 42 41 41 41 42 42 43 42 42 43 43 43 44 44 44 45 46 49 51 52 52 50 48 47 48 47 46 43 40 38 38 41 43 44 43 40 39 39 39 40 41 43 45 47
30 30 29 29 29 29 29 29 29 29 29 30 30 30 31 32 33 34 36 38 40 42 43 44 44 44 43 43 43 44 45 45 45 45 44 44 44 45 45 45 44 44 47 49 51 51 49 47 46 46 46 45 42 39 37 38 40 43 44 43 41 39 39 38 40 42 44 46 48
30 30 30 29 29 29 29 29 29 29 30 30 31 31 32 33 34 36 38 40 42 43 44 44 45 45 45 45 45 45 46 46 46 46 45 45 44 44 45 45 44 43 44 46 48 48 48 46 44 44 45 43 41 38 37 38 40 42 43 43 41 40 39 39 40 42 44 46 49
31 31 30 30 30 29 29 29 30 30 30 31 32 33 33 35 36 38 39 41 42 44 45 47 47 47 46 46 46 46 46 46 46 47 46 46 44 43 44 45 45 43 42 43 45 46 45 44 43 43 44 43 40 37 36 37 39 41 42 42 41 40 40 40 41 43 44 46 48
32 31 31 31 30 30 30 30 31 31 32 33 34 35 36 37 38 40 41 43 44 45 47 48 49 48 47 47 46 45 45 45 46 47 47 47 46 44 44 45 46 45 43 43 44 44 44 43 42 42 43 42 39 37 36 37 38 40 41 41 41 41 41 42 43 44 46 47 49
32 32 32 31 31 31 31 31 31 32 33 35 37 38 40 41 41 42 43 45 45 46 47 48 48 48 47 47 47 46 45 46 46 47 48 48 47 46 44 44 45 46 45 44 44 44 44 42 41 41 42 41 39 37 37 37 39 39 40 40 40 41 42 43 45 46 47 49 50
33 33 32 32 31 31 31 31 32 34 36 38 40 41 43 44 44 44 45 46 47 47 46 46 46 47 47 47 48 48 47 46 46 47 48 49 48 47 45 44 45 46 46 45 44 43 43 41 40 41 41 40 39 38 38 38 39 39 39 39 40 41 43 44 46 47 48 49 50
33 33 32 32 32 32 32 33 35 37 38 40 42 44 45 46 47 47 47 47 46 45 44 44 44 45 47 47 48 49 50 49 48 48 49 50 50 49 47 45 45 46 46 46 44 43 42 40 39 40 41 40 40 39 40 40 39 39 38 38 40 41 43 45 46 47 48 49 50
33 33 32 32 32 33 34 36 38 39 41 42 44 46 47 47 47 47 46 46 45 44 43 43 43 45 47 47 48 49 51 52 52 51 51 50 50 50 49 47 45 45 46 45 44 42 41 40 39 40 41 41 41 41 41 41 40 39 39 39 40 41 43 45 46 47 48 48 49
33 33 33 34 34 35 37 38 39 41 42 43 45 46 46 46 45 45 45 45 45 44 43 44 45 46 48 49 50 51 52 53 54 53 52 51 50 50 49 47 45 45 45 45 43 42 41 40 40 41 41 42 41 41 41 41 40 39 39 40 41 42 43 45 46 47 47 47 47
34 35 35 35 37 38 39 40 40 41 42 43 44 44 44 44 44 44 44 44 45 45 45 45 46 47 48 50 51 52 53 53 54 53 52 51 50 49 49 47 46 45 45 44 43 42 41 40 40 41 41 41 41 41 41 40 40 40 40 41 42 43 44 44 45 46 47 47 47
36 36 37 37 38 39 39 39 40 41 42 42 42 42 42 42 42 43 43 44 45 45 45 46 47 48 50 52 53 53 53 53 53 53 52 51 50 49 48 46 46 45 45 44 43 41 40 40 40 40 40 41 41 41 41 41 41 41 41 42 43 43 44 43 44 45 46 46 46
38 38 38 38 38 39 39 40 40 41 41 40 41 41 41 42 42 42 43 44 45 45 45 46 48 50 52 53 54 54 54 53 53 52 51 49 48 47 46 45 44 44 44 44 42 40 39 39 39 39 40 41 42 42 42 41 41 41 41 42 43 44 44 44 44 44 44 45 46
38 38 38 38 38 39 40 40 40 40 40 40 40 40 41 42 42 43 43 44 45 46 47 48 49 51 53 54 54 54 54 53 52 50 49 48 46 45 44 44 44 44 44 42 41 39 38 38 38 39 41 42 43 43 43 43 42 42 41 42 43 44 45 45 44 44 44 44 45
37 38 38 38 39 40 41 41 41 40 40 40 40 40 41 42 42 43 44 45 46 47 48 50 51 52 53 54 54 53 53 52 51 49 48 47 46 45 44 43 43 43 42 41 39 38 37 37 38 40 42 43 44 44 45 44 43 43 42 42 43 44 44 45 45 45 45 45 45
37 38 38 38 39 40 41 41 41 40 40 40 40 41 41 42 42 43 44 45 46 48 49 50 52 52 53 53 53 53 52 51 50 49 48 46 45 44 44 44 43 41 40 38 38 37 37 38 40 42 43 44 44 44 45 45 44 44 43 44 44 44 44 44 45 45 46 46 45
38 38 38 39 40 40 41 41 41 41 41 40 40 40 41 41 42 43 44 45 46 48 49 50 51 52 52 53 53 53 52 50 49 47 46 45 44 43 43 43 42 40 38 36 36 37 38 40 41 42 43 43 44 44 45 45 45 44 44 44 44 44 44 45 46 46 47 46 46
38 38 39 39 40 40 41 41 41 41 41 40 40 40 40 41 42 43 44 45 47 49 50 51 51 51 52 52 52 51 50 49 47 46 45 44 43 42 41 41 41 40 38 37 37 39 40 41 42 42 42 42 43 44 45 45 45 45 44 44 45 45 46 46 47 47 47 47 46
39 39 39 39 39 40 40 41 40 40 40 40 40 40 41 42 43 44 45 46 47 48 49 49 49 50 50 50 50 49 48 47 46 45 44 43 42 40 39 39 40 39 39 39 40 41 41 41 41 41 41 42 44 45 45 45 45 45 45 45 45 46 47 48 48 48 48 47 46
39 39 39 38 39 39 40 40 40 40 40 40 40 41 41 42 43 44 45 46 46 46 46 47 47 48 48 48 48 47 46 45 45 44 43 42 39 37 36 36 37 39 40 40 41 40 40 40 40 41 42 43 44 45 45 45 45 45 45 45 46 47 48 49 49 48 47 46 45
38 38 38 38 38 39 39 40 41 41 41 41 42 42 42 43 43 44 44 45 46 46 46 46 46 46 46 46 46 45 45 44 44 43 42 39 36 34 34 35 35 36 37 38 38 39 39 40 41 43 44 45 45 45 45 45 45 45 45 46 46 47 48 49 49 48 47 46 46
37 37 37 37 37 38 39 40 40 40 41 41 43 44 44 43 43 43 44 45 45 45 45 45 45 45 45 44 44 44 43 44 43 42 40 36 33 32 32 33 34 35 35 35 36 37 39 41 43 45 46 46 46 46 46 46 46 46 46 46 46 47 47 48 48 48 47 46 46
35 35 36 37 38 38 38 39 39 40 41 42 44 44 44 44 43 43 43 43 43 43 43 44 44 43 43 43 42 42 42 43 43 41 38 34 32 30 31 33 35 35 34 34 35 37 39 42 45 47 47 47 47 47 47 47 47 47 47 47 46 46 46 47 47 47 46 46 46
34 35 35 36 37 37 38 38 39 40 42 43 43 43 43 43 42 42 42 41 41 41 42 42 42 42 42 41 41 41 41 42 42 40 36 32 30 30 32 35 35 34 34 34 36 38 41 45 47 47 48 48 48 48 48 48 47 47 46 45 45 45 45 46 46 46 46 46 46
34 34 35 36 37 37 38 39 40 41 42 42 42 42 42 41 40 40 40 39 39 40 41 41 41 41 41 40 40 41 41 42 41 37 33 30 29 32 36 36 35 34 34 36 37 39 43 46 47 48 48 48 48 48 48 48 47 46 45 44 43 44 44 45 45 46 46 46 46
34 35 35 36 37 38 39 39 40 40 41 41 41 41 41 40 40 39 39 38 38 39 40 41 41 41 40 40 41 42 43 41 38 33 29 27 30 36 38 36 35 35 36 37 38 41 44 47 48 48 48 48 49 48 48 47 46 45 44 43 42 42 43 43 45 46 46 47 46
35 36 36 37 38 38 39 39 40 40 40 40 40 40 39 39 39 39 39 38 39 39 40 41 41 41 40 41 42 43 43 39 34 29 25 27 33 37 36 35 35 35 36 38 39 42 45 47 48 48 48 49 49 48 47 46 45 44 42 42 41 40 40 41 43 44 45 46 45
35 36 37 38 38 38 38 39 39 39 39 39 39 38 38 38 38 39 39 39 39 40 40 41 41 40 40 41 43 43 41 36 30 24 24 30 35 36 34 33 34 36 37 39 41 43 46 48 48 48 49 49 48 48 47 46 45 43 41 40 39 39 38 38 40 42 43 43 42
Wind_Direction
304 304 302 301 302 303 304 304 303 301 300 299 299 298 297 296 296 295 293 293 292 291 291 290 289 288 287 287 288 289 289 289 288 288 288 289 290 289 287 281 275 271 268 268 268 269 269 269 267 265 264 263 262 260 257 253 249 249 250 250 243 236 232 232 231 228 226 226 226
300 299 299 299 301 303 303 303 302 301 299 298 297 296 295 295 294 293 292 291 289 289 289 289 288 287 287 286 286 286 287 288 289 289 289 288 288 288 288 285 281 276 271 269 269 270 270 270 270 269 267 265 263 262 259 257 255 252 249 247 242 237 232 232 233 231 228 225 224
298 297 297 298 299 301 302 301 300 300 299 298 296 296 295 294 294 293 292 290 289 288 287 287 287 287 287 287 286 286 286 287 289 290 291 291 290 290 289 287 284 280 275 271 271 272 273 273 273 273 272 270 268 266 262 259 257 255 253 249 244 239 236 234 234 232 229 225 223
297 296 296 297 298 299 300 299 299 298 298 297 296 296 296 296 296 295 293 291 290 289 288 287 287 286 286 286 286 286 287 287 287 288 290 291 292 292 292 291 288 284 278 273 272 273 274 275 275 275 275 276 275 272 267 262 259 258 257 254 251 247 243 239 236 233 230 225 222
297 296 296 297 298 299 299 298 297 297 296 295 296 296 296 297 297 296 295 295 293 292 291 290 289 288 287 286 286 286 287 287 287 286 287 288 290 292 293 293 291 287 282 276 273 273 274 275 276 276 276 278 280 279 275 269 265 262 260 259 257 254 249 243 239 235 231 226 223
297 297 298 298 298 298 298 297 296 295 294 294 295 295 295 294 295 295 295 296 297 297 296 295 294 293 292 290 288 287 287 287 287 286 285 286 288 290 291 292 292 290 287 282 277 274 274 276 277 278 278 279 282 284 282 278 273 268 265 263 261 259 254 248 243 239 235 229 224
298 298 299 299 298 298 297 296 295 294 293 293 293 293 292 292 293 294 295 296 297 299 299 299 298 297 297 295 292 289 287 286 285 285 284 285 286 287 289 290 290 290 289 286 283 279 277 277 279 280 280 281 284 286 287 286 283 276 270 266 265 263 259 253 245 241 237 232 225
298 299 299 298 298 297 296 295 294 293 293 292 291 291 291 291 291 292 293 295 296 297 298 298 298 297 296 295 293 290 287 285 284 284 284 284 285 285 286 287 288 288 288 287 286 283 280 279 281 282 283 283 285 287 290 291 288 283 277 271 268 265 262 256 249 243 239 234 226
299 298 298 298 297 296 295 294 293 292 291 291 290 290 289 289 289 290 290 292 293 295 296 296 296 296 296 295 294 292 290 287 286 286 285 285 285 284 284 284 285 285 285 285 285 284 281 280 281 282 283 284 285 287 290 292 290 287 281 275 270 267 263 257 250 244 239 233 226
299 298 298 297 296 294 294 293 291 291 290 290 289 289 288 288 287 287 288 289 291 292 293 294 295 296 297 296 296 295 293 291 290 289 288 286 284 283 283 282 282 282 282 283 283 283 281 280 280 281 282 283 285 287 290 292 290 287 282 277 273 268 263 256 249 243 238 232 227
299 298 297 295 294 293 292 292 291 290 290 289 289 288 287 286 286 286 287 288 289 291 292 294 296 297 297 297 297 296 295 294 292 291 289 287 285 283 282 281 280 279 279 281 282 282 281 279 279 279 280 281 283 285 288 290 289 286 281 277 273 268 261 255 248 242 236 231 227
298 297 296 294 293 292 292 291 290 290 290 289 288 287 286 285 285 285 286 287 289 290 292 295 297 298 299 299 299 298 297 295 293 291 289 288 286 284 282 280 278 277 277 278 280 281 280 278 277 277 277 279 280 283 286 288 288 284 279 276 272 268 260 252 246 240 235 230 226
298 297 295 294 293 292 291 291 290 290 289 288 287 287 286 285 285 285 286 287 288 290 293 295 298 299 300 301 301 300 299 296 293 290 287 285 285 284 283 280 277 276 276 276 278 279 278 276 274 274 275 276 278 280 284 287 286 282 277 273 270 265 258 249 242 238 234 229 224
298 296 295 294 293 292 291 291 290 290 289 288 287 287 287 286 285 285 286 287 288 290 293 296 298 300 301 302 302 302 300 299 296 292 287 284 282 281 281 279 277 274 274 274 275 276 276 274 273 272 272 273 276 279 284 287 285 280 274 270 267 262 255 247 239 236 233 229 224
297 295 294 293 292 292 291 291 290 290 289 288 288 288 288 287 286 286 286 287 288 290 293 295 297 299 301 302 303 303 303 302 300 296 292 287 282 279 278 278 277 274 272 272 273 273 273 272 271 270 270 270 273 278 283 287 284 278 272 267 264 260 254 245 237 233 231 230 228
295 294 293 293 292 292 291 291 290 289 289 288 288 288 288 288 287 287 287 287 289 290 292 294 296 298 300 302 303 305 305 305 304 301 297 293 288 283 279 277 277 274 271 269 270 271 271 271 270 268 267 268 270 275 281 285 282 276 270 265 263 258 252 245 237 231 229 228 227
294 293 293 292 291 291 290 290 289 289 289 289 289 289 289 288 287 287 286 287 288 289 290 292 294 296 299 302 304 305 306 305 304 302 300 297 293 288 282 277 277 275 272 268 267 267 269 270 270 268 266 265 267 271 278 281 279 273 268 264 260 256 251 245 238 232 228 226 223
294 293 292 291 290 290 289 289 289 289 289 289 289 288 288 287 287 286 286 286 287 288 289 290 293 295 298 301 303 304 304 303 302 301 300 298 295 291 285 279 276 275 273 269 265 265 267 269 270 267 264 262 263 268 274 278 276 272 266 261 257 252 247 242 238 234 230 226 223
293 292 291 290 289 289 289 288 289 289 289 289 288 288 287 287 286 286 286 286 286 287 289 290 293 295 297 300 301 302 302 301 300 298 297 296 295 292 287 280 275 273 272 270 266 264 265 268 268 265 261 259 261 266 271 273 272 268 262 257 252 247 243 239 236 233 231 227 223
292 291 291 290 289 288 288 289 289 290 290 289 289 288 288 288 287 287 287 287 288 289 290 291 292 294 296 297 299 300 300 299 297 295 294 293 292 290 286 281 274 270 269 268 266 264 263 265 265 262 259 258 260 264 267 268 266 262 257 251 246 242 238 235 232 230 228 225 222
291 290 290 289 289 288 289 289 290 290 291 290 290 289 289 289 289 289 289 290 291 292 292 292 292 293 294 295 296 298 299 298 296 294 291 290 288 286 284 280 274 269 267 266 264 262 261 262 261 258 256 257 259 262 263 263 261 256 250 244 240 236 233 230 227 225 222 220 217
290 290 290 289 289 289 290 290 291 291 291 291 291 291 291 291 292 292 293 294 294 294 293 292 291 292 292 292 293 295 296 297 296 295 292 288 286 284 282 279 274 268 264 263 262 260 258 257 256 255 254 255 257 259 259 258 255 250 244 238 233 229 226 223 221 218 216 214 211
290 290 290 290 290 291 291 292 292 292 292 292 292 292 293 293 293 293 294 294 294 294 293 292 291 291 291 291 292 293 295 296 296 295 293 289 286 284 281 279 274 268 263 260 259 257 254 251 251 251 251 253 255 255 254 251 248 243 237 231 227 223 220 217 214 212 210 207 205
290 290 290 290 291 291 292 293 293 293 292 292 292 293 293 293 293 293 293 293 293 293 293 292 291 291 290 291 292 293 294 294 294 294 292 289 286 283 280 278 274 268 261 257 257 254 250 245 244 246 248 250 251 251 249 245 241 236 231 227 222 218 214 211 208 206 204 202 200
291 291 291 291 292 292 293 294 294 293 293 293 292 292 293 293 293 292 292 292 293 293 293 292 291 291 291 291 292 293 293 293 292 292 290 288 284 280 277 275 272 267 261 255 254 252 247 241 239 242 245 247 247 246 243 240 236 231 227 223 218 214 209 205 203 201 200 197 195
291 292 292 292 293 293 294 295 295 294 294 293 292 292 292 292 293 292 292 293 293 293 293 292 291 291 292 292 293 293 293 293 292 291 289 286 283 279 276 272 269 266 260 254 252 249 245 239 238 241 244 245 243 241 237 234 231 227 223 220 215 210 205 202 199 196 194 193 192
292 292 293 293 294 295 295 296 295 295 294 294 293 293 293 293 293 293 293 293 293 293 293 292 292 292 293 293 293 293 293 292 292 290 288 286 283 279 275 271 267 263 259 253 249 246 242 238 238 241 243 242 240 236 233 229 225 222 218 215 212 208 204 199 195 191 189 188 187
293 293 294 294 295 296 296 296 296 296 295 294 294 293 293 293 293 293 293 293 293 293 293 293 293 293 293 293 292 292 292 292 291 289 287 285 282 279 275 269 265 261 256 250 246 243 240 238 239 241 241 238 236 233 229 225 220 216 213 210 207 204 201 197 193 189 187 185 184
294 294 295 296 296 296 297 297 296 296 295 295 294 294 294 293 293 292 292 293 293 293 293 293 293 293 292 291 292 292 292 291 290 288 287 284 281 277 273 269 264 259 253 247 243 241 240 239 238 237 236 234 231 228 224 220 215 211 208 206 203 200 197 193 190 188 185 183 181
295 295 296 297 297 297 296 296 296 296 296 295 295 294 293 293 292 292 292 293 293 293 293 293 293 292 291 291 292 292 292 291 291 289 287 285 282 277 272 266 261 256 250 243 240 240 239 237 234 232 230 228 226 222 218 214 210 206 202 200 197 195 193 191 188 185 183 181 179
296 297 297 297 297 296 296 296 296 295 295 295 294 293 293 293 293 292 292 292 293 293 293 294 292 291 291 292 292 292 292 292 291 290 288 286 283 277 271 264 259 254 248 242 239 239 237 233 228 225 223 222 219 215 211 207 204 200 196 194 192 191 190 188 186 184 182 180 178
297 297 298 297 297 296 296 295 295 295 295 294 294 294 293 293 293 293 293 292 293 293 293 293 292 291 291 292 293 293 293 293 292 291 289 287 282 276 268 262 257 251 245 240 238 235 231 226 221 219 216 213 210 207 204 200 197 194 191 190 189 188 187 186 185 184 183 181 179
298 298 298 297 297 296 296 296 295 295 294 294 294 294 294 294 294 294 293 293 293 293 293 292 292 292 293 294 294 295 295 294 293 292 290 287 280 273 266 261 255 246 238 233 230 226 221 217 214 211 208 204 201 199 196 193 190 187 186 185 185 185 186 185 184 183 182 181 179
299 299 298 298 297 297 296 296 296 295 295 295 295 295 295 295 295 294 294 294 294 294 294 294 293 293 294 295 295 296 296 296 295 293 290 285 278 271 264 257 246 234 226 221 217 214 212 210 207 203 199 196 194 191 188 185 183 182 180 180 181 182 183 183 182 181 180 178 176
301 300 300 299 299 298 297 297 297 297 296 296 296 296 296 295 295 295 295 295 296 296 295 295 295 295 295 296 296 297 297 296 295 293 290 284 277 270 259 244 230 220 213 209 208 207 206 204 199 195 191 189 187 185 183 181 179 178 177 176 176 177 178 178 178 177 176 174 172
302 302 301 301 300 299 299 298 298 298 297 297 297 297 297 297 297 296 296 297 296 296 296 296 296 296 296 297 298 298 298 297 295 293 289 283 276 264 245 226 216 211 208 205 205 204 202 197 193 189 186 184 182 181 179 177 176 175 174 173 173 173 173 173 173 172 171 170 168
304 303 303 302 301 300 300 299 299 298 298 298 298 298 298 298 298 297 297 297 296 296 296 296 297 298 298 299 300 300 300 299 297 293 289 281 269 248 227 214 210 208 206 204 202 200 196 192 188 185 183 181 179 177 176 175 173 172 171 170 169 170 170 169 169 168 168 167 165
305 305 304 303 302 301 301 300 300 299 299 299 299 299 299 299 298 298 298 297 297 297 297 298 299 299 300 301 302 302 302 301 298 294 287 276 254 231 217 211 207 204 202 200 198 195 191 187 185 183 182 180 178 176 174 172 170 169 167 166 166 166 167 167 166 166 166 165 163
306 305 305 304 303 302 301 301 300 300 300 300 300 300 300 300 299 299 299 299 298 298 298 299 300 301 302 302 303 303 303 302 299 293 281 260 233 219 213 208 203 199 197 196 194 191 188 185 183 183 182 181 178 175 173 170 167 165 164 163 163 163 164 165 165 165 165 164 163
307 306 305 304 304 303 302 302 301 301 301 301 301 301 301 301 301 301 301 301 300 300 299 300 301 302 302 303 303 303 303 302 297 287 265 234 216 211 209 205 198 194 193 192 190 188 185 183 182 181 181 179 176 173 170 167 164 162 160 160 159 159 160 162 163 165 165 165 165
307 307 306 305 305 304 303 303 303 303 303 303 303 302 302 302 302 302 302 302 301 301 301 301 301 302 303 304 304 303 302 298 289 270 239 214 207 206 205 200 194 190 188 187 186 184 182 181 180 179 177 175 172 169 166 163 160 157 155 155 155 155 157 159 162 164 166 167 167